ボアッティーニ彗星

C/2008 J1 ( Boattini )

English version
Home page
Total 6,336 html files since Dec. 4, 1995
Updated on July 20, 2008

---------------------------------------------------------------------

・ プロフィール

発見日 2008年5月2日
発見光度 14.2等
発見者 A. Boattini (Catalina Sky Survey)

・ 写真集

・ 軌道要素

Epoch 2008 Aug. 2.0 TT = JDT 2454680.5
T 2008 July 13.26777 TT                                 MPC
q   1.7242413            (2000.0)            P               Q
z  +0.0061351      Peri.   68.12609     +0.46026129     +0.12053105
 +/-0.0000173      Node   273.41822     -0.64246859     +0.72896975
e   0.9894216      Incl.   61.77910     +0.61269376     +0.67385114

・ 星図

・ 光度変化

        m1 = 2.2 + 5 logΔ + 30 log r

---------------------------------------------------------------------

軌道要素はM.P.E.C. 2008-N38に掲載されたものです。
星図はステラナビゲータ Ver.8 (アストロアーツ) で作成したものです。
光度グラフはComet for Windowsで作成したものです。

---------------------------------------------------------------------

Copyright(C) 1995-2008 Seiichi Yoshida (comet@aerith.net). All rights reserved.